Vertical_Velocity
5 4 0 -3 -4 -5 14 -3 4 4 -4 -5 5 -2 1 -2 2 9 5 -2 -2 1 -1 6 5 4 -3 -4 0 3 -0 -2 -3 -1 -3 -2 -3 -1
5 6 4 2 0 6 3 2 9 5 5 -2 -2 2 -3 -3 -2 1 1 5 2 6 2 1 4 -4 3 1 -1 -1 -3 -0 -1 -2 -2 -2 -3 -2
5 4 5 3 3 2 1 -3 5 1 8 5 7 -0 4 -1 4 2 7 -1 -1 -1 -2 0 -3 -4 -2 1 -5 -6 -1 -1 -3 -5 -4 -3 -5 -5
1 -1 -1 -2 -0 -1 1 2 -0 -3 2 5 3 3 6 -3 2 1 -4 -2 -4 -5 -2 -2 -0 -2 2 -1 -2 -4 -1 -0 -1 1 0 -1 -2 -2
-4 -1 -2 -2 -3 -3 -2 -1 -0 1 -0 -3 3 -1 1 0 -0 -4 4 -5 -0 -1 1 -2 -1 -4 0 -1 -4 1 -0 0 -3 0 1 1 -0 0
-1 -0 -1 -1 -1 -1 -0 2 3 0 -0 0 -6 1 2 -2 -3 1 2 -1 -4 -1 3 -1 0 -0 1 -4 3 -3 -2 -2 -2 -1 -1 -1 -1 -2
-1 -0 0 1 2 1 1 -1 0 -1 -3 -1 -1 0 -0 -0 -1 -3 -3 -7 1 -1 0 1 1 2 1 2 2 -1 -1 -0 1 -0 -1 -2 -3 -2
2 2 2 -0 -0 -2 -3 4 -7 3 -1 1 0 -3 -3 -1 -1 -2 -2 -7 -10 0 -7 -2 -4 2 0 4 3 -0 0 0 0 0 -0 -1 -0 2
-2 -2 -2 -1 -1 -1 -1 -1 0 -1 -0 -1 -3 -2 -3 -1 -1 -3 -7 -7 -8 -1 1 -20 5 -7 -2 1 -1 -1 -0 1 -1 -1 0 -1 -0 1
-1 -1 -1 -0 -1 -2 -2 -1 -1 -1 -2 -3 0 1 1 -1 -3 -3 -1 -2 -3 1 3 -13 -2 -5 -6 1 -3 -3 -1 0 -3 -2 -4 -2 -1 -3
2 1 0 -1 -3 -1 -1 0 0 1 0 -0 -0 -1 -2 -1 -1 -1 1 -1 -6 -6 3 3 -7 -9 -13 0 -1 -0 3 -0 -1 -2 -2 -3 -3 -1
-0 -1 -0 0 0 -0 -2 -2 -2 -2 -1 0 -0 -1 -1 0 0 -1 -2 -3 1 -7 -0 -2 -3 3 -4 -11 -2 -1 -4 1 -3 1 1 1 3 -3
-0 -1 -0 1 3 1 1 0 -0 1 1 0 1 -0 -1 -1 -1 -0 0 -2 -2 -2 -1 4 -5 -3 2 -4 -14 5 1 -1 -1 -0 -1 -2 -3 -1
3 2 0 -1 -1 -1 1 0 1 -0 -1 -1 -1 -1 -1 -1 0 0 1 1 1 -2 -3 1 3 4 3 -1 -5 -3 6 -0 -1 -3 -5 -3 -0 -2
0 3 3 1 0 0 0 0 1 0 0 -1 1 0 -1 -0 -1 -1 3 1 0 1 3 3 2 2 3 -1 -3 -7 -16 -12 -3 -3 -2 2 -3 -1
2 2 1 0 -0 1 1 -0 1 -0 -0 -1 -2 0 1 1 2 -0 -2 -3 -4 -0 6 3 0 3 -2 0 2 -5 2 -2 -3 1 -2 0 2 -3
-1 -1 -0 0 -0 0 -0 0 0 0 0 -0 0 -1 0 0 2 1 -1 -1 -1 -5 -5 -0 3 -0 0 -0 -4 4 -0 -1 4 -1 -1 -3 3 -2
-2 -1 -1 -1 0 1 -0 -1 -1 -1 -2 0 -0 -1 -3 -2 -2 1 -1 -1 -4 -2 -1 0 -3 -6 -4 -2 1 -2 2 -1 -1 1 -0 -5 -0 2
-3 0 -1 0 -1 -1 -1 -0 -1 -2 -1 0 0 0 -3 0 -1 -0 -1 -1 -0 -1 1 1 -2 2 -1 -2 -2 -1 -2 1 -4 -3 1 3 -3 -2
1 1 -0 -1 -0 -1 -0 -1 -1 -1 -1 1 3 -1 -2 -2 -1 1 1 -2 -2 -3 -4 4 3 2 1 1 0 1 2 -2 -1 -1 -1 2 1 3
1 -1 -0 0 -1 -1 -1 -2 0 -1 1 0 0 -2 1 -1 1 -0 -0 1 -0 0 -3 -1 0 3 1 1 -1 -1 1 -0 0 -0 -1 -2 -3 -2
1 0 0 0 -1 1 -0 -1 0 -1 -2 -1 -0 1 0 -0 -1 -2 -1 -4 -1 0 0 1 0 -1 1 1 -0 1 0 -1 0 0 1 3 1 -4
0 0 -0 -1 -2 -1 -1 -1 0 1 -1 0 -1 1 0 0 0 0 -0 -1 -2 -1 0 -3 -1 2 3 0 -0 0 -1 -2 -0 -0 -0 1 1 1
Height
1441 1442 1445 1447 1449 1449 1444 1451 1452 1454 1454 1456 1456 1456 1455 1451 1451 1450 1449 1449 1450 1449 1450 1451 1449 1448 1450 1448 1448 1447 1446 1444 1442 1440 1438 1437 1436 1436
1438 1439 1441 1442 1444 1446 1447 1447 1448 1449 1450 1451 1449 1449 1448 1446 1446 1446 1444 1443 1443 1444 1442 1443 1441 1441 1441 1441 1440 1438 1436 1434 1431 1429 1427 1426 1425 1424
1434 1435 1436 1437 1439 1440 1441 1442 1442 1444 1445 1443 1441 1441 1440 1441 1440 1438 1438 1438 1438 1437 1437 1436 1435 1435 1435 1432 1429 1428 1426 1423 1421 1420 1417 1416 1414 1414
1431 1432 1432 1433 1434 1436 1437 1437 1437 1437 1438 1438 1436 1435 1434 1436 1435 1434 1434 1431 1430 1430 1430 1431 1429 1428 1426 1423 1422 1420 1417 1414 1412 1410 1408 1407 1405 1404
1429 1429 1429 1430 1431 1432 1432 1432 1432 1432 1432 1434 1432 1432 1431 1432 1432 1431 1429 1427 1429 1427 1426 1423 1423 1422 1418 1415 1413 1411 1408 1405 1403 1401 1399 1397 1396 1395
1427 1427 1428 1429 1429 1430 1430 1430 1430 1430 1429 1430 1429 1431 1430 1429 1428 1426 1425 1424 1425 1423 1420 1419 1418 1416 1412 1409 1406 1403 1401 1398 1396 1394 1392 1390 1387 1386
1425 1426 1426 1427 1428 1428 1429 1429 1429 1429 1428 1429 1429 1428 1428 1426 1425 1422 1419 1418 1419 1417 1414 1414 1413 1409 1407 1404 1400 1397 1394 1392 1390 1388 1385 1383 1380 1378
1426 1426 1427 1427 1428 1428 1428 1428 1429 1427 1427 1427 1426 1425 1425 1423 1421 1419 1416 1414 1412 1410 1406 1407 1405 1403 1401 1398 1394 1391 1388 1387 1385 1382 1379 1375 1371 1368
1427 1427 1427 1427 1427 1427 1428 1427 1427 1426 1426 1425 1424 1423 1422 1420 1418 1415 1413 1412 1410 1408 1402 1399 1398 1396 1395 1392 1389 1385 1383 1382 1380 1376 1372 1368 1364 1360
1427 1427 1427 1427 1428 1428 1427 1427 1426 1424 1423 1422 1421 1420 1417 1415 1413 1411 1409 1407 1406 1404 1400 1393 1394 1390 1388 1386 1383 1381 1379 1377 1373 1369 1365 1361 1358 1354
1426 1426 1426 1425 1425 1426 1425 1425 1424 1422 1421 1420 1419 1417 1415 1413 1411 1409 1407 1403 1399 1399 1395 1392 1390 1384 1382 1380 1378 1378 1375 1370 1367 1363 1358 1355 1352 1349
1425 1425 1425 1425 1424 1424 1424 1423 1422 1421 1420 1418 1416 1414 1413 1411 1408 1405 1402 1399 1397 1394 1394 1390 1386 1384 1377 1375 1374 1372 1369 1365 1361 1356 1352 1349 1346 1343
1423 1423 1424 1423 1422 1421 1420 1419 1418 1418 1416 1415 1413 1411 1410 1407 1405 1403 1400 1397 1395 1392 1391 1389 1384 1382 1379 1371 1367 1365 1362 1359 1354 1350 1347 1344 1342 1339
1422 1422 1421 1420 1419 1419 1418 1416 1416 1414 1413 1412 1411 1408 1406 1404 1401 1399 1396 1393 1391 1387 1385 1385 1381 1379 1375 1369 1363 1360 1357 1353 1349 1345 1343 1340 1338 1334
1419 1418 1418 1417 1416 1415 1414 1413 1412 1412 1410 1409 1407 1405 1402 1399 1396 1393 1391 1388 1386 1384 1381 1379 1377 1374 1371 1367 1361 1356 1352 1347 1346 1343 1339 1336 1331 1327
1414 1414 1414 1414 1413 1412 1410 1409 1408 1407 1406 1404 1403 1401 1399 1396 1393 1389 1387 1384 1381 1380 1378 1375 1372 1369 1365 1363 1359 1353 1351 1346 1343 1340 1334 1330 1326 1322
1410 1410 1410 1409 1408 1407 1406 1405 1404 1403 1401 1400 1399 1397 1395 1393 1390 1387 1384 1381 1378 1374 1372 1371 1368 1365 1362 1359 1353 1350 1346 1343 1340 1335 1329 1325 1324 1320
1404 1404 1404 1404 1403 1402 1401 1400 1399 1398 1397 1396 1394 1393 1391 1389 1387 1385 1381 1378 1375 1372 1369 1366 1362 1359 1356 1354 1351 1346 1343 1340 1336 1332 1328 1324 1321 1318
1398 1398 1397 1398 1398 1397 1395 1394 1393 1393 1393 1392 1390 1389 1388 1386 1384 1381 1378 1375 1372 1369 1367 1364 1360 1357 1353 1349 1347 1344 1340 1337 1333 1330 1327 1324 1319 1317
1392 1393 1393 1393 1392 1392 1391 1389 1388 1388 1388 1388 1387 1385 1384 1383 1380 1378 1375 1371 1368 1365 1363 1361 1358 1355 1352 1349 1345 1342 1339 1335 1332 1328 1325 1323 1320 1317
1388 1387 1388 1388 1387 1386 1386 1385 1384 1383 1383 1384 1383 1382 1381 1379 1377 1375 1371 1369 1366 1363 1360 1357 1355 1353 1350 1347 1344 1340 1338 1334 1332 1329 1325 1322 1319 1316
1383 1383 1383 1383 1382 1382 1381 1381 1379 1378 1380 1380 1380 1378 1377 1376 1373 1370 1368 1365 1363 1361 1357 1355 1352 1349 1347 1344 1341 1339 1336 1334 1332 1329 1327 1325 1322 1319
1377 1377 1377 1377 1377 1377 1376 1375 1375 1376 1375 1376 1375 1374 1373 1371 1370 1367 1365 1363 1360 1357 1355 1351 1349 1347 1345 1343 1340 1338 1335 1334 1332 1331 1328 1326 1324 1323